Sioux Falls, SD

8:17 AM CDT on October 20, 2017 (GMT -0500)
Foss

Weather History for KFSD - February, 2015

Change the Weather History Date:

Tuesday, February 10, 2015

  Actual Average Record
Temperature  
Mean Temperature 32 °F 20 °F  
Max Temperature 40 °F 30 °F 59 °F (2017)
Min Temperature 24 °F 10 °F -35 °F (1893)
Degree Days  
Heating Degree Days 33 45  
Month to date heating degree days 456 462  
Since 1 July heating degree days 4826 5094  
Cooling Degree Days 0 0  
Month to date cooling degree days 0 0  
Year to date cooling degree days 0 0  
Moisture  
Dew Point 31 °F    
Average Humidity 91    
Maximum Humidity 100    
Minimum Humidity 82    
Precipitation  
Precipitation 0.02 in 0.02 in 0.48 in (1944)
Month to date precipitation 0.21 0.18  
Year to date precipitation 1.02 0.74  
Snow  
Snow T in 0.20 in 7.40 in (1959)
Month to date snowfall 3.2 2.4  
Since 1 July snowfall 27.2 27.0  
Snow Depth 1.00 in    
Sea Level Pressure  
Sea Level Pressure 29.94 in    
Wind  
Wind Speed 19 mph (SW)    
Max Wind Speed 33 mph    
Max Gust Speed 43 mph    
Visibility 6 miles    
Events Rain , Snow    
T = Trace of Precipitation, MM = Missing Value Source: NWS Daily Summary

Daily Weather History Graph

Daily Weather History Graph

Search for Another Location

Airport or City:

Trip Planner

Search our weather history database for the weather conditions in past years. The results will help you decide how hot, cold, wet, or windy it might be!

Date:

Astronomy

Feb. 10, 2015 Rise Set
Actual Time 7:32 AM CST 5:50 PM CST
Civil Twilight 7:02 AM CST 6:20 PM CST
Nautical Twilight 6:29 AM CST 6:53 PM CST
Astronomical Twilight 5:55 AM CST 7:27 PM CST
Moon No Moon Rise 10:33 AM CST (2/10)
Length of Visible Light 11h 17m
Length of Day
10h 17m
Waning Gibbous, 64% of the Moon is Illuminated
Feb 10
Waning Gibbous
Feb 11
Last Quarter
Feb 18
New
Feb 25
First Quarter
Mar 5
Full

Hourly Weather History & Observations

Time (CST) Temp. Windchill Dew Point Humidity Pressure Visibility Wind Dir Wind Speed Gust Speed Precip Events Conditions
12:56 AM 30.0 °F - 28.0 °F 92% 30.09 in 7.0 mi North - - N/A   Overcast
1:56 AM 30.0 °F 18.3 °F 28.0 °F 92% 30.06 in 8.0 mi SSE 17.3 mph 26.5 mph N/A   Overcast
2:51 AM 30.2 °F 20.2 °F 28.4 °F 93% 29.98 in 6.0 mi SSE 12.7 mph 24.2 mph N/A   Overcast
2:56 AM 30.2 °F 17.1 °F 28.4 °F 93% 29.97 in 6.0 mi SSE 21.9 mph 26.5 mph N/A   Overcast
3:52 AM 30.2 °F 17.8 °F 28.4 °F 93% 29.97 in 4.0 mi SSE 19.6 mph - 0.00 in Rain Light Freezing Rain
3:56 AM 30.0 °F 17.5 °F 28.9 °F 96% 30.01 in 5.0 mi SSE 19.6 mph - 0.00 in Rain Light Freezing Rain
4:06 AM 30.0 °F 16.9 °F 28.9 °F 96% 29.95 in 5.0 mi SSE 21.9 mph 27.6 mph 0.01 in   Overcast
4:45 AM 30.0 °F 16.6 °F 28.9 °F 96% 29.91 in 2.0 mi SSE 23.0 mph 29.9 mph 0.01 in Rain Light Freezing Rain
4:49 AM 30.0 °F 16.6 °F 28.9 °F 96% 29.90 in 1.8 mi SSE 23.0 mph 32.2 mph 0.01 in Rain Light Freezing Rain
4:56 AM 30.0 °F 17.5 °F 28.9 °F 96% 29.96 in 2.0 mi SSE 19.6 mph 32.2 mph 0.01 in Rain Light Freezing Rain
5:14 AM 30.0 °F 15.4 °F 28.9 °F 96% 29.89 in 1.0 mi South 27.6 mph 36.8 mph 0.00 in Rain Light Freezing Rain
5:26 AM 30.0 °F 16.9 °F 28.9 °F 96% 29.88 in 0.8 mi SSE 21.9 mph 28.8 mph 0.00 in Rain Light Freezing Rain
5:42 AM 30.0 °F 16.9 °F 28.9 °F 96% 29.89 in 0.8 mi South 21.9 mph 31.1 mph 0.00 in   Overcast
5:56 AM 30.0 °F 17.5 °F 28.9 °F 96% 29.95 in 0.8 mi South 19.6 mph 29.9 mph 0.00 in   Overcast
6:31 AM 30.9 °F 18.1 °F 30.0 °F 96% 29.88 in 0.8 mi South 21.9 mph 32.2 mph 0.00 in   Light Freezing Drizzle
6:38 AM 30.9 °F 18.4 °F 30.0 °F 96% 29.88 in 1.5 mi South 20.7 mph 28.8 mph 0.00 in   Light Freezing Drizzle
6:56 AM 30.9 °F 17.8 °F 30.0 °F 96% 29.92 in 1.5 mi South 23.0 mph 32.2 mph 0.00 in   Light Freezing Drizzle
7:32 AM 30.9 °F 17.5 °F 30.9 °F 100% 29.87 in 0.8 mi South 24.2 mph 28.8 mph 0.00 in   Light Freezing Drizzle
7:56 AM 32.0 °F 19.8 °F 30.9 °F 96% 29.91 in 0.8 mi South 20.7 mph 31.1 mph 0.00 in   Light Freezing Drizzle
8:56 AM 30.2 °F 17.1 °F 30.2 °F 100% 29.84 in 0.8 mi South 21.9 mph 29.9 mph N/A   Light Freezing Drizzle
9:16 AM 32.0 °F 18.6 °F 32.0 °F 100% 29.83 in 0.8 mi South 25.3 mph 32.2 mph 0.00 in   Light Drizzle
9:56 AM 33.1 °F 21.5 °F 32.0 °F 96% 29.88 in 0.8 mi South 19.6 mph - 0.00 in Rain Light Rain
10:45 AM 34.0 °F 23.8 °F 33.1 °F 96% 29.82 in 1.0 mi SSW 16.1 mph 23.0 mph 0.00 in Rain Light Rain
10:56 AM 35.1 °F 25.9 °F 34.0 °F 96% 29.86 in 1.0 mi SSW 13.8 mph - 0.00 in Rain Light Rain
11:18 AM 36.0 °F 28.0 °F 34.0 °F 93% 29.82 in 2.5 mi SSW 11.5 mph - 0.01 in Rain Light Rain
11:20 AM 35.6 °F 27.5 °F 33.8 °F 93% 29.82 in 2.5 mi SSW 11.5 mph - N/A Rain Light Rain
11:49 AM 37.0 °F 30.4 °F 35.1 °F 93% 29.82 in 3.0 mi WSW 9.2 mph 19.6 mph 0.01 in   Overcast
11:56 AM 37.9 °F 30.5 °F 36.0 °F 93% 29.87 in 4.0 mi WSW 11.5 mph 18.4 mph 0.01 in   Overcast
12:56 PM 39.9 °F 31.4 °F 36.0 °F 86% 29.87 in 8.0 mi West 16.1 mph - N/A   Overcast
1:56 PM 39.0 °F 32.3 °F 36.0 °F 89% 29.87 in 10.0 mi West 10.4 mph - N/A   Overcast
2:56 PM 39.0 °F 30.6 °F 36.0 °F 89% 29.88 in 10.0 mi West 15.0 mph - N/A   Overcast
3:56 PM 39.0 °F 31.0 °F 36.0 °F 89% 29.91 in 10.0 mi NW 13.8 mph - N/A   Overcast
4:15 PM 39.0 °F 31.0 °F 35.1 °F 86% 29.87 in 10.0 mi WNW 13.8 mph - N/A   Overcast
4:36 PM 39.0 °F 31.4 °F 35.1 °F 86% 29.88 in 10.0 mi WNW 12.7 mph 20.7 mph N/A   Overcast
4:53 PM 39.2 °F 30.2 °F 35.6 °F 87% 29.89 in 10.0 mi WNW 17.3 mph 23.0 mph N/A   Overcast
4:56 PM 39.0 °F 28.8 °F 35.1 °F 86% 29.94 in 10.0 mi NW 21.9 mph 27.6 mph N/A   Overcast
5:56 PM 37.9 °F 28.2 °F 34.0 °F 86% 29.97 in 10.0 mi NW 18.4 mph - N/A   Overcast
6:01 PM 37.9 °F 29.2 °F 34.0 °F 86% 29.92 in 10.0 mi NW 15.0 mph 24.2 mph N/A   Overcast
6:53 PM 37.4 °F 28.5 °F 33.8 °F 87% 29.94 in 10.0 mi NW 15.0 mph - N/A   Overcast
6:56 PM 37.9 °F 28.9 °F 33.1 °F 83% 29.99 in 10.0 mi NW 16.1 mph - N/A   Overcast
7:56 PM 36.0 °F 25.0 °F 30.0 °F 79% 30.02 in 10.0 mi NW 20.7 mph 32.2 mph N/A   Overcast
8:54 PM 33.8 °F 21.3 °F 28.4 °F 81% 30.00 in 10.0 mi NW 24.2 mph 33.4 mph N/A   Overcast
8:56 PM 33.1 °F 20.6 °F 28.0 °F 82% 30.06 in 10.0 mi NW 23.0 mph 33.4 mph N/A   Overcast
9:11 PM 32.0 °F 18.6 °F 27.0 °F 82% 30.02 in 10.0 mi NW 25.3 mph 33.4 mph N/A   Overcast
9:56 PM 30.0 °F 16.6 °F 26.1 °F 85% 30.10 in 4.0 mi NNW 23.0 mph 34.5 mph 0.00 in Snow Light Snow
10:56 PM 27.0 °F 10.8 °F 21.0 °F 78% 30.16 in 10.0 mi NW 29.9 mph 36.8 mph 0.00 in   Overcast
11:56 PM 24.1 °F 7.1 °F 17.1 °F 75% 30.19 in 10.0 mi NW 28.8 mph 35.7 mph N/A   Overcast